Pamplona/Noain, Spain

5:43 AM CET on February 22, 2017 (GMT +0100)
Pamplona

Weather History for LEPP - February, 2013

Change the Weather History Date:

Saturday, February 23, 2013

  Actual Average Record
Temperature  
Mean Temperature 30 °F -  
Max Temperature 33 °F 54 °F 64 °F (2008)
Min Temperature 26 °F 38 °F 17 °F (2005)
Degree Days  
Heating Degree Days 36    
Moisture  
Dew Point 23 °F    
Average Humidity 74    
Maximum Humidity 100    
Minimum Humidity 60    
Precipitation  
Precipitation 0.00 in - - ()
Sea Level Pressure  
Sea Level Pressure 29.90 in    
Wind  
Wind Speed 15 mph ()    
Max Wind Speed 25 mph    
Max Gust Speed 38 mph    
Visibility 5.5 miles    
Events Rain , Snow    
Averages and records for this station are not official NWS values.
T = Trace of Precipitation, MM = Missing Value Source: Averaged Metar Reports

Daily Weather History Graph

Daily Weather History Graph

Search for Another Location

Airport or City:

Trip Planner

Search our weather history database for the weather conditions in past years. The results will help you decide how hot, cold, wet, or windy it might be!

Date:

Astronomy

Feb. 23, 2013 Rise Set
Actual Time 7:51 AM CET 6:48 PM CET
Civil Twilight 7:23 AM CET 7:17 PM CET
Nautical Twilight 6:50 AM CET 7:50 PM CET
Astronomical Twilight 6:17 AM CET 8:22 PM CET
Moon 4:42 PM CET (2/23) 6:07 AM CET (2/23)
Length of Visible Light 11h 53m
Length of Day
10h 56m
Waxing Gibbous, 94% of the Moon is Illuminated
Feb 23
Waxing Gibbous
Feb 25
Full
Mar 4
Last Quarter
Mar 11
New
Mar 19
First Quarter

Hourly Weather History & Observations

Time (CET) Temp. Windchill Dew Point Humidity Pressure Visibility Wind Dir Wind Speed Gust Speed Precip Events Conditions
12:00 AM 33.8 °F 23.5 °F 26.6 °F 75% 29.59 in 6.2 mi NNW 16.1 mph - N/A   Partly Cloudy
5:30 AM 28.4 °F 14.4 °F 19.4 °F 69% 29.71 in 6.2 mi North 23.0 mph - N/A   Mostly Cloudy
6:00 AM 28.4 °F 16.6 °F 19.4 °F 69% 29.74 in 6.2 mi North 16.1 mph - N/A   Mostly Cloudy
6:30 AM 28.4 °F 15.8 °F 19.4 °F 69% 29.74 in 6.2 mi North 18.4 mph - N/A Rain , Snow Light Freezing Rain
7:00 AM 26.6 °F 13.4 °F 19.4 °F 74% 29.74 in 6.2 mi North 18.4 mph - N/A Rain , Snow Light Freezing Rain
7:30 AM 28.4 °F 15.4 °F 19.4 °F 69% 29.77 in 6.2 mi North 19.6 mph - N/A Rain , Snow Light Freezing Rain
8:00 AM 28.4 °F 15.1 °F 19.4 °F 69% 29.77 in 6.2 mi North 20.7 mph 33.4 mph N/A   Mostly Cloudy
8:30 AM 26.6 °F 13.4 °F 19.4 °F 74% 29.80 in 6.2 mi NNW 18.4 mph - N/A   Mostly Cloudy
9:00 AM 26.6 °F 15.2 °F 19.4 °F 74% 29.83 in 6.2 mi NNW 13.8 mph - N/A   Mostly Cloudy
9:30 AM 26.6 °F 14.7 °F 17.6 °F 69% 29.83 in 5.0 mi North 15.0 mph 27.6 mph N/A Snow Light Snow
10:00 AM 28.4 °F 15.4 °F 19.4 °F 69% 29.83 in 6.2 mi North 19.6 mph 31.1 mph N/A Snow Light Snow
10:30 AM 28.4 °F 13.8 °F 17.6 °F 64% 29.86 in 6.2 mi North 25.3 mph 38.0 mph N/A   Scattered Clouds
11:00 AM 28.4 °F 14.1 °F 17.6 °F 64% 29.86 in 6.2 mi North 24.2 mph 35.7 mph N/A   Scattered Clouds
11:30 AM 28.4 °F 15.1 °F 19.4 °F 69% 29.86 in 6.2 mi NNW 20.7 mph - N/A   Scattered Clouds
12:00 PM 28.4 °F 14.7 °F 17.6 °F 64% 29.89 in 6.2 mi NNW 21.9 mph - N/A   Mostly Cloudy
12:30 PM 30.2 °F 18.9 °F 19.4 °F 64% 29.89 in 6.2 mi NNW 16.1 mph - N/A   Scattered Clouds
1:00 PM 30.2 °F 18.1 °F 17.6 °F 60% 29.89 in 6.2 mi NNW 18.4 mph 31.1 mph N/A   Mostly Cloudy
1:30 PM 32.0 °F 21.2 °F 19.4 °F 60% 29.92 in 6.2 mi NNW 16.1 mph 28.8 mph N/A   Mostly Cloudy
2:00 PM 32.0 °F 20.5 °F 19.4 °F 60% 29.92 in 6.2 mi North 18.4 mph - N/A   Mostly Cloudy
2:30 PM 32.0 °F 21.2 °F 21.2 °F 64% 29.92 in 6.2 mi NNW 16.1 mph - N/A   Mostly Cloudy
3:00 PM 32.0 °F 21.2 °F 21.2 °F 64% 29.92 in 6.2 mi NNW 16.1 mph - N/A   Mostly Cloudy
3:30 PM 32.0 °F 21.6 °F 21.2 °F 64% 29.92 in 6.2 mi NNW 15.0 mph - N/A   Mostly Cloudy
4:00 PM 32.0 °F 20.8 °F 23.0 °F 69% 29.92 in 6.2 mi North 17.3 mph - N/A   Mostly Cloudy
4:30 PM 32.0 °F 20.8 °F 23.0 °F 69% 29.95 in 6.2 mi North 17.3 mph - N/A   Mostly Cloudy
5:00 PM 32.0 °F 22.1 °F 23.0 °F 69% 29.95 in 6.2 mi North 13.8 mph - N/A   Mostly Cloudy
5:30 PM 32.0 °F 21.2 °F 23.0 °F 69% 29.95 in 6.2 mi North 16.1 mph - N/A   Mostly Cloudy
6:00 PM 30.2 °F 21.9 °F 26.6 °F 86% 29.95 in 1.2 mi North 9.2 mph - N/A Snow Light Snow
6:30 PM 30.2 °F 25.4 °F 28.4 °F 93% 29.98 in 2.8 mi NNW 4.6 mph - N/A Snow Snow
7:00 PM 30.2 °F 24.3 °F 26.6 °F 86% 29.98 in 5.6 mi North 5.8 mph - N/A Snow Light Snow
7:30 PM 30.2 °F 21.3 °F 28.4 °F 93% 29.98 in 5.0 mi NNW 10.4 mph - N/A Snow Snow
8:00 PM 30.2 °F 20.8 °F 28.4 °F 93% 30.01 in 3.7 mi NNW 11.5 mph - N/A Snow Snow
8:30 PM 32.0 °F 23.6 °F 28.4 °F 87% 30.01 in 2.8 mi NW 10.4 mph - N/A Snow Snow
9:00 PM 30.2 °F 21.3 °F 30.2 °F 100% 30.01 in 2.8 mi NNW 10.4 mph - N/A Snow Snow
9:30 PM 30.2 °F 21.3 °F 30.2 °F 100% 30.01 in 2.8 mi NNW 10.4 mph - N/A Snow Snow
10:00 PM 32.0 °F 20.8 °F 28.4 °F 87% 30.01 in 6.2 mi NNW 17.3 mph - N/A Snow Light Snow
10:30 PM 32.0 °F 22.1 °F 26.6 °F 80% 30.04 in 6.2 mi NNW 13.8 mph - N/A Snow Light Snow
11:00 PM 32.0 °F 23.6 °F 26.6 °F 80% 30.04 in 3.7 mi NNW 10.4 mph - N/A Snow Snow
11:30 PM 32.0 °F 26.4 °F 26.6 °F 80% 30.04 in 6.2 mi NNW 5.8 mph - N/A Snow Light Snow